Aduana, Mexico

2:14 PM on April 29, 2017 (GMT +0000)
Aduana

Weather History for 76590 - April, 2013

Change the Weather History Date:

Monday, April 1, 2013

  Actual Average Record
Temperature  
Mean Temperature 80 °F -  
Max Temperature 84 °F 85 °F - ()
Min Temperature 77 °F 68 °F - ()
Cooling Degree Days 16    
Growing Degree Days 30 (Base 50)    
Moisture  
Dew Point 73 °F    
Average Humidity 81    
Maximum Humidity 89    
Minimum Humidity 70    
Precipitation  
Precipitation 0.00 in - - ()
Sea Level Pressure  
Sea Level Pressure 29.97 in    
Wind  
Wind Speed 10 mph ()    
Max Wind Speed 17 mph    
Max Gust Speed -    
Visibility 7.0 miles    
Events      
T = Trace of Precipitation, MM = Missing Value Source: Averaged Metar Reports

Daily Weather History Graph

Daily Weather History Graph

Search for Another Location

Airport or City:

Trip Planner

Search our weather history database for the weather conditions in past years. The results will help you decide how hot, cold, wet, or windy it might be!

Date:

Astronomy

Apr. 01, 2013 Rise Set
Actual Time 11:40 AM UTC 12:02 AM UTC
Civil Twilight 11:18 AM UTC 12:24 AM UTC
Nautical Twilight 10:52 AM UTC 12:50 AM UTC
Astronomical Twilight 10:25 AM UTC 1:16 AM UTC
Moon 4:38 AM UTC (4/1) 3:58 PM UTC (4/1)
Length of Visible Light 13h 06m
Length of Day
12h 21m
Waning Gibbous, 69% of the Moon is Illuminated
Apr 1
Waning Gibbous
Apr 3
Last Quarter
Apr 10
New
Apr 18
First Quarter
Apr 25
Full

Hourly Weather History & Observations

Time (GMT) Temp. Heat Index Dew Point Humidity Pressure Visibility Wind Dir Wind Speed Gust Speed Precip Events Conditions
12:40 AM 78.8 °F - 71.6 °F 78% 29.96 in 7.0 mi SE 11.5 mph - N/A   Scattered Clouds
1:43 AM 77.0 °F - 71.6 °F 83% 29.96 in 7.0 mi SE 10.4 mph - N/A   Scattered Clouds
2:51 AM 78.8 °F - 71.6 °F 78% 29.97 in 7.0 mi SE 11.5 mph - N/A   Partly Cloudy
3:41 AM 77.0 °F - 71.6 °F 83% 29.97 in 7.0 mi SE 9.2 mph - N/A   Partly Cloudy
4:42 AM 77.0 °F - 73.4 °F 89% 29.96 in 7.0 mi SE 10.4 mph - N/A   Scattered Clouds
5:48 AM 77.0 °F - 73.4 °F 89% 29.96 in 7.0 mi SSE 13.8 mph - N/A   Scattered Clouds
6:49 AM 77.0 °F - 73.4 °F 89% 29.94 in 7.0 mi SE 11.5 mph - N/A   Scattered Clouds
7:41 AM 77.0 °F - 73.4 °F 89% 29.94 in 7.0 mi SE 8.1 mph - N/A   Scattered Clouds
8:43 AM 77.0 °F - 73.4 °F 89% 29.95 in 7.0 mi SE 6.9 mph - N/A   Scattered Clouds
9:41 AM 77.0 °F - 73.4 °F 89% 29.95 in 7.0 mi SE 5.8 mph - N/A   Scattered Clouds
10:40 AM 77.0 °F - 73.4 °F 89% 29.96 in 7.0 mi SE 8.1 mph - N/A   Scattered Clouds
11:40 AM 77.0 °F - 73.4 °F 89% 29.97 in 7.0 mi SE 8.1 mph - N/A   Scattered Clouds
12:42 PM 78.8 °F - 73.4 °F 83% 29.98 in 7.0 mi SE 9.2 mph - N/A   Scattered Clouds
1:44 PM 80.6 °F 85.4 °F 73.4 °F 79% 30.01 in 7.0 mi SE 11.5 mph - N/A   Mostly Cloudy
2:41 PM 82.4 °F 88.2 °F 73.4 °F 74% 30.04 in 7.0 mi SSE 13.8 mph - N/A   Mostly Cloudy
3:40 PM 82.4 °F 88.2 °F 73.4 °F 74% 30.02 in 7.0 mi SSE 13.8 mph - N/A   Mostly Cloudy
4:43 PM 84.2 °F 90.9 °F 73.4 °F 70% 30.02 in 7.0 mi ESE 12.7 mph - N/A   Mostly Cloudy
5:40 PM 82.4 °F 88.2 °F 73.4 °F 74% 30.03 in 7.0 mi SE 11.5 mph - N/A   Mostly Cloudy
6:42 PM 82.4 °F 88.2 °F 73.4 °F 74% 30.00 in 7.0 mi SE 13.8 mph - N/A   Mostly Cloudy
7:40 PM 84.2 °F 90.9 °F 73.4 °F 70% 29.97 in 7.0 mi SSE 17.3 mph - N/A   Scattered Clouds
8:47 PM 82.4 °F 88.2 °F 73.4 °F 74% 29.97 in 7.0 mi SSE 12.7 mph - N/A   Scattered Clouds
9:43 PM 82.4 °F 88.2 °F 73.4 °F 74% 29.95 in 7.0 mi SSE 12.7 mph - N/A   Scattered Clouds
10:42 PM 80.6 °F 85.4 °F 73.4 °F 79% 29.94 in 7.0 mi SE 11.5 mph - N/A   Scattered Clouds
11:48 PM 78.8 °F - 73.4 °F 83% 29.96 in 7.0 mi SE 9.2 mph - N/A   Scattered Clouds